Regional Weather Roundup
Issued by NWS Sioux Falls, SD

Home | Current Version | Previous Version | Graphics & Text | Print | Product List | Glossary Off
Versions: 1 2 3 4 5 6 7 8 9 10 11 12 13 14 15 16 17 18 19 20 21 22 23 24 25 26 27 28 29 30 31 32 33 34 35 36 37 38 39 40 41 42 43 44 45 46 47 48 49 50

000
ASUS43 KFSD 230310
RWRFSD

WEATHER ROUNDUP FOR SE SOUTH DAKOTA/SW MINNESOTA/NW IOWA
NATIONAL WEATHER SERVICE SIOUX FALLS SD
1000 PM CDT TUE APR 22 2014

NOTE: "FAIR" INDICATES FEW OR NO CLOUDS BELOW 12,000 FEET WITH NO
SIGNIFICANT WEATHER AND OR OBSTRUCTIONS TO VISIBILITY.


SDZ038>040-050-052>070-230400-
SOUTHEAST SOUTH DAKOTA

CITY           SKY/WX    TMP DP  RH WIND       PRES   REMARKS
CHAMBERLAIN      N/A     62  33  33 SE23G30   29.79R
HURON          CLOUDY    59  31  34 SE16G25   29.87R
MADISON        MOCLDY    55  32  41 SE12      29.95S
MITCHELL         N/A     60  33  36 SE22      29.88R
SIOUX FALLS    MOCLDY    59  33  37 SE14G21   29.95S
WINNER         FAIR      66  32  28 SE21G31   29.76R
YANKTON        PTCLDY    57  34  41 E13       29.92S
$$

MNZ071-072-080-081-089-090-097-098-230400-
SOUTHWEST MINNESOTA

CITY           SKY/WX    TMP DP  RH WIND       PRES   REMARKS
FAIRMONT       CLOUDY    52  30  43 E10       30.06S
JACKSON        CLOUDY    55  32  41 E10       30.03R
LUVERNE        CLOUDY    59  32  36 SE13      29.99R
MARSHALL       CLOUDY    55  32  41 SE15      30.00R
MONTEVIDEO     CLOUDY    54  37  54 SE14      30.02R
PIPESTONE      CLOUDY    55  34  44 SE7       29.99R
REDWOOD FALLS  CLOUDY    54  31  41 E9        30.02R
TRACY          CLOUDY    56  33  42 SE16      30.01R
WINDOM         RAIN      54  34  47 E12       30.03R
WORTHINGTON    CLOUDY    55  30  38 SE10      30.03R
$$

IAZ001>003-012>014-020>022-031-032-NEZ013-014-SDZ071-230400-
NORTHWEST IOWA

CITY           SKY/WX    TMP DP  RH WIND       PRES   REMARKS
CHEROKEE       CLOUDY    57  35  44 E6        30.01R
DENISON        CLOUDY    57  36  44 SE6       30.00S
ESTHERVILLE    CLOUDY    54  36  50 E16       30.02R
LE MARS        CLOUDY    57  37  47 SE10      29.99S
ORANGE CITY    CLOUDY    59  34  38 SE6       30.00R
SHELDON        CLOUDY    55  36  47 SE9       29.99S
SIOUX CITY     CLOUDY    61  35  37 SE13      29.97S
SPENCER        CLOUDY    56  37  49 S8        30.02R
STORM LAKE     CLOUDY    55  36  47 E8        30.03R
$$

ABBREVIATIONS USED IN REMARKS
   TC - TEMPERATURE IN CELSIUS
  WCI - WIND CHILL INDEX
   HX - HEAT INDEX
  VSB - VISIBILITY




USA.gov is the U.S. government's official web portal to all federal, state and local government web resources and services.